Weather in Darmstadt

Germany     49°52′07″N   8°38′52″E
temp.,
°C
wind,
m/s
gust,
m/s
humid.,
%
clouds,
%
prec.,
mm/h
press.,
hPa
HPBL,
m
18 april, sun
sun1823:00+4sse118877 0.0 102213
02:00+5e0184100 0.0 102125
05:00+5nnw1284100 0.0 102164
08:00+5nne1283100 0.0 1021143
11:00+5n1294100 1.3 1022275
14:00+6nw1290100 1.7 1022369
17:00+9n127539 0.1 1020751
20:00+6nw118527 0.1 102110
19 april, mon
mon1923:00+5sse118998 0.0 102112
02:00+6ssw229099 0.1 102049
05:00+5ssw239494 0.0 102072
08:00+5s2390100 0.0 1020154
11:00+8s2277100 0.0 1020517
14:00+11sse016898 0.1 1019892
17:00+12ene226132 0.0 10181093
20:00+8ese227859 0.0 101830
20 april, tue
tue2023:00+6se118571 0.0 101811
02:00+5s118636 0.0 101810
05:00+5e018940 0.0 101810
08:00+7nne118252 0.0 101869
11:00+12nw116740 0.0 1017704
14:00+14wsw115580 0.6 10161474
17:00+14nnw015290 0.1 10151113
20:00+10sw11667 0.1 101521
21 april, wed
wed2123:00+8s127022 0.0 101619
02:00+7ssw227510 0.0 101625
05:00+5ssw118616 0.0 101612
08:00+8sw118167 0.0 101780
11:00+10nw2377100 0.1 1018373
14:00+14wnw4654100 0.2 10171624
17:00+12wnw4759100 0.1 1017846
20:00+9nnw486755 0.2 1019704
22 april, thu
thu2223:00+5wnw247820 0.0 102199
02:00+3nw2375100 0.0 102380
05:00+1wnw37803 0.0 1023188
08:00+2w37735 0.0 1024434
11:00+6wnw575699 0.0 10241522
14:00+8wnw5751100 0.1 10251759
17:00+8nw5656100 0.0 10251391
20:00+6nw25686 0.0 1026179